Regional Weather Roundup
Issued by NWS

Home | Current Version | Previous Version | Text Only | Print | Product List | Glossary On
Versions: 1 2 3 4 5 6 7 8 9 10 11 12 13 14 15 16 17 18 19 20 21 22 23 24 25 26 27 28 29 30 31 32 33 34 35 36 37 38 39 40 41 42 43 44 45 46 47 48 49 50
000
ASUS43 KLMK 292010
RWRKY
KENTUCKY REGIONAL WEATHER ROUNDUP
NATIONAL WEATHER SERVICE LOUISVILLE KY
400 PM EDT MON MAY 29 2017

NOTE "FAIR" INDICATES FEW OR NO CLOUDS BELOW 12,000 FEET
WITH NO SIGNIFICANT WEATHER AND/OR OBSTRUCTIONS TO VISIBILITY.

KYZ001>023-026-027-061>063-070>075-292100-
WESTERN AND SOUTH CENTRAL KENTUCKY

CITY           SKY/WX    TMP DP  RH WIND       PRES   REMARKS
PADUCAH        SUNNY     84  55  36 SW15      29.95F
HENDERSON      MOSUNNY   83  57  41 SW13G18   29.94F
OWENSBORO      SUNNY     84  55  36 W14       29.95F
HOPKINSVILLE   MOSUNNY   82  56  40 W7        29.97F
BOWLING GREEN  MOSUNNY   83  56  39 W9        29.97F
GLASGOW        PTSUNNY   82  57  43 SW9       29.98F
$$

KYZ024-025-028>034-038-045-046-053-292100-
NORTH CENTRAL KENTUCKY

CITY           SKY/WX    TMP DP  RH WIND       PRES   REMARKS
LOUISVILLE/SDF PTSUNNY   83  53  35 SW14G22   29.94F
LOUISVILLE/LOU MOSUNNY   82  54  37 SW13      29.95F
FORT KNOX      MOSUNNY   81  57  43 W13       29.95F
$$

KYZ035>037-039>044-047>052-055>060-089>105-292100-
NORTHEAST KENTUCKY

CITY           SKY/WX    TMP DP  RH WIND       PRES   REMARKS
LEXINGTON      MOSUNNY   80  55  42 SW10      29.98F
COVINGTON      PTSUNNY   81  56  42 SW14G20   29.94F
FRANKFORT      MOSUNNY   79  56  45 SW9       29.96F
$$

KYZ054-064>069-076>088-106>120-292100-
SOUTHEAST KENTUCKY

CITY           SKY/WX    TMP DP  RH WIND       PRES   REMARKS
JACKSON        MOSUNNY   78  62  57 CALM      30.02F
LONDON         MOSUNNY   76  57  51 SW7       30.02F
SOMERSET       MOSUNNY   75  55  50 S8        30.02F
MIDDLESBORO    CLOUDY    77  62  61 SW6       30.03S
MONTICELLO     CLOUDY    77  62  59 VRB5      30.03F
$$




USA.gov is the U.S. government's official web portal to all federal, state and local government web resources and services.